Time,TemperatureF,DewpointF,PressureIn,WindDirection,WindDirectionDegrees,WindSpeedMPH,WindSpeedGustMPH,Humidity,HourlyPrecipIn,Conditions,Clouds,dailyrainin,SolarRadiationWatts/m^2,SoftwareType,DateUTC
2013-10-03 00:02:00,73.0,72.1,30.18,ENE,68,0.0,0.0,97,0.00,RA,BKN,0.00,0.0,WeatherDisplay:10.37,2013-10-03 05:02:00,
2013-10-03 00:07:00,73.0,72.1,30.18,ENE,68,1.2,0.0,97,0.00,FEW,BKN,0.00,0.0,WeatherDisplay:10.37,2013-10-03 05:07:00,
2013-10-03 00:12:00,73.0,72.1,30.18,ENE,68,1.6,0.0,97,0.00,FEW,BKN,0.00,0.0,WeatherDisplay:10.37,2013-10-03 05:12:00,
2013-10-03 00:17:00,72.9,72.0,30.18,ENE,68,0.0,0.0,97,0.00,FEW,BKN,0.00,0.0,WeatherDisplay:10.37,2013-10-03 05:17:00,
2013-10-03 00:22:00,72.9,72.0,30.18,East,90,1.2,0.0,97,0.00,FEW,BKN,0.00,0.0,WeatherDisplay:10.37,2013-10-03 05:22:00,
2013-10-03 00:27:00,72.9,72.0,30.18,ENE,68,1.2,0.0,97,0.00,FEW,BKN,0.00,0.0,WeatherDisplay:10.37,2013-10-03 05:27:00,
2013-10-03 00:32:00,72.9,72.0,30.18,ENE,68,1.2,0.0,97,0.00,FEW,BKN,0.00,0.0,WeatherDisplay:10.37,2013-10-03 05:32:00,
2013-10-03 00:37:00,72.7,71.8,30.18,NNE,22,0.0,0.0,97,0.00,FEW,BKN,0.00,0.0,WeatherDisplay:10.37,2013-10-03 05:37:00,
2013-10-03 00:42:00,72.7,71.8,30.18,East,90,1.2,0.0,97,0.00,BKN,,0.00,0.0,WeatherDisplay:10.37,2013-10-03 05:42:00,
2013-10-03 00:47:00,72.7,71.8,30.18,NE,45,1.2,0.0,97,0.00,BKN,,0.00,0.0,WeatherDisplay:10.37,2013-10-03 05:47:00,
2013-10-03 00:52:00,72.5,71.6,30.18,East,90,0.0,0.0,97,0.00,BKN,,0.00,0.0,WeatherDisplay:10.37,2013-10-03 05:52:00,
2013-10-03 00:57:00,72.5,71.6,30.18,ESE,112,1.2,0.0,97,0.00,BKN,,0.00,0.0,WeatherDisplay:10.37,2013-10-03 05:57:00,
2013-10-03 01:02:00,72.5,71.6,30.18,East,90,0.0,0.0,97,0.00,OVC,BKN,0.00,0.0,WeatherDisplay:10.37,2013-10-03 06:02:00,
2013-10-03 01:07:00,72.5,71.6,30.18,ENE,68,1.2,0.0,97,0.00,OVC,BKN,0.00,0.0,WeatherDisplay:10.37,2013-10-03 06:07:00,
2013-10-03 01:12:00,72.5,71.6,30.18,ENE,68,1.4,1.4,97,0.00,OVC,BKN,0.00,0.0,WeatherDisplay:10.37,2013-10-03 06:12:00,
2013-10-03 01:17:00,72.5,71.6,30.18,ENE,68,1.2,1.2,97,0.00,OVC,BKN,0.00,0.0,WeatherDisplay:10.37,2013-10-03 06:17:00,
2013-10-03 01:22:00,72.5,71.6,30.18,NE,45,2.3,2.3,97,0.00,OVC,BKN,0.00,0.0,WeatherDisplay:10.37,2013-10-03 06:22:00,
2013-10-03 01:27:00,72.5,71.6,30.18,ESE,112,1.4,1.4,97,0.00,OVC,BKN,0.00,0.0,WeatherDisplay:10.37,2013-10-03 06:27:00,
2013-10-03 01:32:00,72.5,71.6,30.18,East,90,1.2,0.0,97,0.00,OVC,BKN,0.00,0.0,WeatherDisplay:10.37,2013-10-03 06:32:00,
2013-10-03 01:37:00,72.5,71.6,30.18,ENE,68,1.2,1.2,97,0.00,OVC,BKN,0.00,0.0,WeatherDisplay:10.37,2013-10-03 06:37:00,
2013-10-03 01:42:00,72.3,71.4,30.18,East,90,2.3,2.3,97,0.00,OVC,BKN,0.00,0.0,WeatherDisplay:10.37,2013-10-03 06:42:00,
2013-10-03 01:47:00,72.3,71.4,30.18,ENE,68,2.3,0.0,97,0.00,OVC,BKN,0.00,0.0,WeatherDisplay:10.37,2013-10-03 06:47:00,
2013-10-03 01:52:00,72.5,71.6,30.18,East,90,1.2,1.2,97,0.00,OVC,BKN,0.00,0.0,WeatherDisplay:10.37,2013-10-03 06:52:00,
2013-10-03 01:57:00,72.5,71.6,30.18,ENE,68,1.2,1.2,97,0.00,OVC,BKN,0.00,0.0,WeatherDisplay:10.37,2013-10-03 06:57:00,
2013-10-03 02:02:00,72.5,71.6,30.15,ENE,68,1.2,0.0,97,0.00,BKN,,0.00,0.0,WeatherDisplay:10.37,2013-10-03 07:02:00,
2013-10-03 02:07:00,72.3,71.4,30.15,East,90,2.3,0.0,97,0.00,BKN,,0.00,0.0,WeatherDisplay:10.37,2013-10-03 07:07:00,
2013-10-03 02:12:00,72.3,71.4,30.15,ENE,68,1.2,0.0,97,0.00,BKN,,0.00,0.0,WeatherDisplay:10.37,2013-10-03 07:12:00,
2013-10-03 02:17:00,72.3,71.4,30.15,East,90,0.0,0.0,97,0.00,BKN,,0.00,0.0,WeatherDisplay:10.37,2013-10-03 07:17:00,
2013-10-03 02:22:00,72.3,71.4,30.15,NE,45,0.0,0.0,97,0.00,OVC,BKN,0.00,0.0,WeatherDisplay:10.37,2013-10-03 07:22:00,
2013-10-03 02:27:00,72.1,71.2,30.15,ENE,68,2.3,0.0,97,0.00,OVC,BKN,0.00,0.0,WeatherDisplay:10.37,2013-10-03 07:27:00,
2013-10-03 02:32:00,72.1,71.2,30.15,NE,45,0.0,0.0,97,0.00,OVC,BKN,0.00,0.0,WeatherDisplay:10.37,2013-10-03 07:32:00,
2013-10-03 02:37:00,72.1,71.2,30.15,NNE,22,0.0,0.0,97,0.00,OVC,BKN,0.00,0.0,WeatherDisplay:10.37,2013-10-03 07:37:00,
2013-10-03 02:42:00,72.0,71.1,30.15,East,90,0.0,0.0,97,0.00,OVC,BKN,0.00,0.0,WeatherDisplay:10.37,2013-10-03 07:42:00,
2013-10-03 02:47:00,72.0,71.1,30.15,NE,45,0.0,0.0,97,0.00,OVC,BKN,0.00,0.0,WeatherDisplay:10.37,2013-10-03 07:47:00,
2013-10-03 02:52:00,72.0,71.1,30.15,NE,45,2.3,0.0,97,0.00,OVC,BKN,0.00,0.0,WeatherDisplay:10.37,2013-10-03 07:52:00,
2013-10-03 02:57:00,72.0,71.1,30.15,ENE,68,0.0,0.0,97,0.00,OVC,BKN,0.00,0.0,WeatherDisplay:10.37,2013-10-03 07:57:00,
2013-10-03 03:02:00,72.0,71.1,30.15,East,90,1.2,0.0,97,0.00,OVC,BKN,0.00,0.0,WeatherDisplay:10.37,2013-10-03 08:02:00,
2013-10-03 03:07:00,72.0,71.1,30.15,East,90,0.0,0.0,97,0.00,OVC,BKN,0.00,0.0,WeatherDisplay:10.37,2013-10-03 08:07:00,
2013-10-03 03:16:00,72.0,71.1,30.15,East,90,0.0,0.0,97,0.00,OVC,BKN,0.00,0.0,WeatherDisplay:10.37,2013-10-03 08:16:00,
2013-10-03 03:21:00,71.8,70.9,30.15,ENE,68,1.2,0.0,97,0.00,OVC,BKN,0.00,0.0,WeatherDisplay:10.37,2013-10-03 08:21:00,
2013-10-03 03:26:00,72.0,71.1,30.15,East,90,0.0,0.0,97,0.00,OVC,BKN,0.00,0.0,WeatherDisplay:10.37,2013-10-03 08:26:00,
2013-10-03 03:31:00,72.1,71.2,30.15,East,90,1.2,0.0,97,0.00,OVC,BKN,0.00,0.0,WeatherDisplay:10.37,2013-10-03 08:31:00,
2013-10-03 03:37:00,72.1,71.2,30.15,ENE,68,0.0,0.0,97,0.00,OVC,BKN,0.00,0.0,WeatherDisplay:10.37,2013-10-03 08:37:00,
2013-10-03 03:41:00,72.1,71.2,30.15,East,90,0.9,0.9,97,0.00,OVC,BKN,0.00,0.0,WeatherDisplay:10.37,2013-10-03 08:41:00,
2013-10-03 03:46:00,72.1,71.2,30.15,ENE,68,1.2,0.0,97,0.00,OVC,BKN,0.00,0.0,WeatherDisplay:10.37,2013-10-03 08:46:00,
2013-10-03 03:51:00,72.1,71.2,30.15,NE,45,1.2,0.0,97,0.00,OVC,BKN,0.00,0.0,WeatherDisplay:10.37,2013-10-03 08:51:00,
2013-10-03 03:56:00,72.3,71.4,30.15,SW,225,0.0,0.0,97,0.00,OVC,BKN,0.00,0.0,WeatherDisplay:10.37,2013-10-03 08:56:00,
2013-10-03 04:01:00,72.1,71.2,30.15,NE,45,1.2,0.0,97,0.00,OVC,BKN,0.00,0.0,WeatherDisplay:10.37,2013-10-03 09:01:00,
2013-10-03 04:06:00,72.1,71.2,30.15,East,90,1.2,0.0,97,0.00,SCT,BKN,0.00,0.0,WeatherDisplay:10.37,2013-10-03 09:06:00,
2013-10-03 04:11:00,72.1,71.2,30.15,East,90,1.2,0.0,97,0.00,SCT,BKN,0.00,0.0,WeatherDisplay:10.37,2013-10-03 09:11:00,
2013-10-03 04:16:00,72.1,71.2,30.15,East,90,0.0,0.0,97,0.00,SCT,BKN,0.00,0.0,WeatherDisplay:10.37,2013-10-03 09:16:00,
2013-10-03 04:21:00,72.1,71.2,30.15,East,90,0.9,0.0,97,0.00,SCT,BKN,0.00,0.0,WeatherDisplay:10.37,2013-10-03 09:21:00,
2013-10-03 04:26:00,72.3,71.4,30.15,ENE,68,1.2,0.0,97,0.00,SCT,BKN,0.00,0.0,WeatherDisplay:10.37,2013-10-03 09:26:00,
2013-10-03 04:31:00,72.3,71.4,30.15,NNE,22,1.6,1.6,97,0.00,SCT,BKN,0.00,0.0,WeatherDisplay:10.37,2013-10-03 09:31:00,
2013-10-03 04:36:00,72.3,71.4,30.15,ENE,68,1.2,0.0,97,0.00,SCT,BKN,0.00,0.0,WeatherDisplay:10.37,2013-10-03 09:36:00,
2013-10-03 04:41:00,72.1,71.2,30.15,East,90,1.2,0.0,97,0.00,SCT,BKN,0.00,0.0,WeatherDisplay:10.37,2013-10-03 09:41:00,
2013-10-03 04:46:00,72.1,71.2,30.12,ENE,68,0.0,0.0,97,0.00,SCT,BKN,0.00,0.0,WeatherDisplay:10.37,2013-10-03 09:46:00,
2013-10-03 04:51:00,72.1,71.2,30.12,East,90,2.3,0.0,97,0.00,SCT,BKN,0.00,0.0,WeatherDisplay:10.37,2013-10-03 09:51:00,
2013-10-03 04:56:00,72.1,71.2,30.12,NE,45,1.2,0.0,97,0.00,SCT,BKN,0.00,0.0,WeatherDisplay:10.37,2013-10-03 09:56:00,
2013-10-03 05:01:00,72.1,71.2,30.15,ENE,68,1.2,0.0,97,0.00,SCT,BKN,0.00,0.0,WeatherDisplay:10.37,2013-10-03 10:01:00,
2013-10-03 05:06:00,72.1,71.2,30.15,ENE,68,0.0,0.0,97,0.00,BKN,,0.00,0.0,WeatherDisplay:10.37,2013-10-03 10:06:00,
2013-10-03 05:12:00,72.0,71.1,30.15,ENE,68,0.0,0.0,97,0.00,BKN,,0.00,0.0,WeatherDisplay:10.37,2013-10-03 10:12:00,
2013-10-03 05:16:00,72.0,71.1,30.15,ENE,68,0.0,0.0,97,0.00,BKN,,0.00,0.0,WeatherDisplay:10.37,2013-10-03 10:16:00,
2013-10-03 05:22:00,72.0,71.1,30.15,East,90,0.0,0.0,97,0.00,SCT,BKN,0.00,0.0,WeatherDisplay:10.37,2013-10-03 10:22:00,
2013-10-03 05:26:00,72.0,71.1,30.15,ESE,112,0.0,0.0,97,0.00,SCT,BKN,0.00,0.0,WeatherDisplay:10.37,2013-10-03 10:26:00,
2013-10-03 05:32:00,71.8,70.9,30.15,ENE,68,1.2,0.0,97,0.00,SCT,BKN,0.00,0.0,WeatherDisplay:10.37,2013-10-03 10:32:00,
2013-10-03 05:37:00,72.0,71.1,30.15,ENE,68,1.2,0.0,97,0.00,SCT,BKN,0.00,0.0,WeatherDisplay:10.37,2013-10-03 10:37:00,
2013-10-03 05:42:00,71.8,70.9,30.15,ENE,68,0.0,0.0,97,0.00,SCT,BKN,0.00,0.0,WeatherDisplay:10.37,2013-10-03 10:42:00,
2013-10-03 05:47:00,71.8,70.9,30.15,NE,45,0.0,0.0,97,0.00,SCT,BKN,0.00,0.0,WeatherDisplay:10.37,2013-10-03 10:47:00,
2013-10-03 05:52:00,71.6,70.7,30.15,NE,45,0.0,0.0,97,0.00,SCT,BKN,0.00,0.0,WeatherDisplay:10.37,2013-10-03 10:52:00,
2013-10-03 05:57:00,71.6,70.7,30.15,East,90,0.0,0.0,97,0.00,SCT,BKN,0.00,0.0,WeatherDisplay:10.37,2013-10-03 10:57:00,
2013-10-03 06:02:00,71.4,70.5,30.15,ENE,68,0.0,0.0,97,0.00,SCT,BKN,0.00,0.0,WeatherDisplay:10.37,2013-10-03 11:02:00,
2013-10-03 06:07:00,71.4,70.5,30.15,ENE,68,0.0,0.0,97,0.00,CLR,BKN,0.00,0.0,WeatherDisplay:10.37,2013-10-03 11:07:00,
2013-10-03 06:12:00,71.4,70.5,30.15,NE,45,0.0,0.0,97,0.00,CLR,BKN,0.00,0.0,WeatherDisplay:10.37,2013-10-03 11:12:00,
2013-10-03 06:15:00,72.1,71.2,30.15,East,79,0.0,0.0,97,0.00,SHSN,BKN,0.00,0.0,WeatherDisplay:10.37,2013-10-03 11:15:00,
2013-10-03 06:17:00,71.4,70.5,30.12,ENE,68,0.0,0.0,97,0.00,CLR,BKN,0.00,0.0,WeatherDisplay:10.37,2013-10-03 11:17:00,
2013-10-03 06:20:00,72.7,71.8,30.15,ENE,68,1.0,0.0,97,0.00,SHSN,BKN,0.00,0.0,WeatherDisplay:10.37,2013-10-03 11:20:00,
2013-10-03 06:22:00,71.4,70.5,30.12,East,90,2.3,0.0,97,0.00,CLR,BKN,0.00,0.0,WeatherDisplay:10.37,2013-10-03 11:22:00,
2013-10-03 06:27:00,71.6,70.7,30.12,East,90,0.0,0.0,97,0.00,CLR,BKN,0.00,0.0,WeatherDisplay:10.37,2013-10-03 11:27:00,
2013-10-03 06:32:00,71.6,70.7,30.12,ENE,68,0.0,0.0,97,0.00,CLR,BKN,0.00,0.0,WeatherDisplay:10.37,2013-10-03 11:32:00,
2013-10-03 06:37:00,71.6,70.7,30.12,ENE,68,0.0,0.0,97,0.00,CLR,BKN,0.00,0.0,WeatherDisplay:10.37,2013-10-03 11:37:00,
2013-10-03 06:39:00,71.8,70.9,30.12,ENE,68,1.1,0.0,97,0.00,CLR,BKN,0.00,0.0,WeatherDisplay:10.37,2013-10-03 11:39:00,
2013-10-03 06:42:00,71.8,70.9,30.12,ENE,68,1.1,0.0,97,0.00,CLR,BKN,0.00,0.0,WeatherDisplay:10.37,2013-10-03 11:42:00,
2013-10-03 06:47:00,71.8,70.9,30.12,ENE,68,1.1,0.0,97,0.00,CLR,BKN,0.00,0.0,WeatherDisplay:10.37,2013-10-03 11:47:00,
2013-10-03 06:52:00,71.6,70.7,30.15,NE,45,2.3,0.0,97,0.00,CLR,BKN,0.00,0.0,WeatherDisplay:10.37,2013-10-03 11:52:00,
2013-10-03 06:57:00,71.8,70.9,30.15,ENE,68,2.3,0.0,97,0.00,CLR,BKN,0.00,0.0,WeatherDisplay:10.37,2013-10-03 11:57:00,
2013-10-03 07:02:00,71.8,70.9,30.15,ENE,68,2.3,0.0,97,0.00,CLR,BKN,0.00,0.0,WeatherDisplay:10.37,2013-10-03 12:02:00,
2013-10-03 07:07:00,71.8,70.9,30.15,NE,45,1.1,1.1,97,0.00,CLR,BKN,0.00,0.0,WeatherDisplay:10.37,2013-10-03 12:07:00,
2013-10-03 07:12:00,71.8,70.9,30.15,NE,45,1.1,0.0,97,0.00,CLR,BKN,0.00,0.0,WeatherDisplay:10.37,2013-10-03 12:12:00,
2013-10-03 07:14:00,72.0,71.1,30.15,ENE,68,1.1,0.0,97,0.00,CLR,BKN,0.00,0.0,WeatherDisplay:10.37,2013-10-03 12:14:00,
2013-10-03 07:17:00,72.0,71.1,30.15,ENE,68,1.1,0.0,97,0.00,CLR,BKN,0.00,0.0,WeatherDisplay:10.37,2013-10-03 12:17:00,
2013-10-03 07:22:00,72.0,71.1,30.15,ENE,68,1.1,0.0,97,0.00,CLR,BKN,0.00,0.0,WeatherDisplay:10.37,2013-10-03 12:22:00,
2013-10-03 07:27:00,73.0,72.1,30.15,East,90,1.2,0.0,97,0.00,FEW,BKN,0.00,0.0,WeatherDisplay:10.37,2013-10-03 12:27:00,
2013-10-03 07:32:00,73.2,72.3,30.15,East,90,2.3,2.3,97,0.00,FEW,BKN,0.00,0.0,WeatherDisplay:10.37,2013-10-03 12:32:00,
2013-10-03 07:34:00,73.6,72.7,30.15,NNE,22,2.3,2.3,97,0.00,FEW,BKN,0.00,0.0,WeatherDisplay:10.37,2013-10-03 12:34:00,
2013-10-03 07:37:00,73.6,72.7,30.15,NNE,22,2.3,2.3,97,0.00,FEW,BKN,0.00,0.0,WeatherDisplay:10.37,2013-10-03 12:37:00,
2013-10-03 07:42:00,73.6,72.7,30.15,NNE,22,2.3,2.3,97,0.00,FEW,BKN,0.00,0.0,WeatherDisplay:10.37,2013-10-03 12:42:00,
2013-10-03 08:31:00,73.6,72.7,30.15,NNE,22,2.3,2.3,97,0.00,FEW,BKN,0.00,0.0,WeatherDisplay:10.37,2013-10-03 13:31:00,
2013-10-03 08:36:00,73.6,72.7,30.15,NNE,22,2.3,2.3,97,0.00,FEW,BKN,0.00,0.0,WeatherDisplay:10.37,2013-10-03 13:36:00,
2013-10-03 08:41:00,73.6,72.7,30.15,NNE,22,2.3,2.3,97,0.00,FEW,BKN,0.00,0.0,WeatherDisplay:10.37,2013-10-03 13:41:00,
2013-10-03 08:46:00,73.6,72.7,30.15,NNE,22,2.3,2.3,97,0.00,FEW,BKN,0.00,0.0,WeatherDisplay:10.37,2013-10-03 13:46:00,
2013-10-03 10:15:00,88.3,78.2,30.21,East,94,2.0,5.0,72,0.00,SHSN,BKN,0.00,0.0,WeatherDisplay:10.37,2013-10-03 15:15:00,
2013-10-03 10:20:00,89.1,77.1,30.21,East,101,5.0,5.0,68,0.00,SHSN,BKN,0.00,0.0,WeatherDisplay:10.37,2013-10-03 15:20:00,
2013-10-03 10:25:00,87.3,75.8,30.21,ESE,116,3.0,5.0,69,0.00,SHSN,BKN,0.00,0.0,WeatherDisplay:10.37,2013-10-03 15:25:00,
2013-10-03 10:30:00,88.2,77.1,30.21,ESE,109,1.0,3.0,70,0.00,SHSN,BKN,0.00,0.0,WeatherDisplay:10.37,2013-10-03 15:30:00,
2013-10-03 10:40:00,84.9,76.9,30.24,North,0,3.5,0.0,77,0.00,CLR,BKN,0.00,0.0,WeatherDisplay:10.37,2013-10-03 15:40:00,
2013-10-03 10:45:00,84.9,76.9,30.24,SSE,158,4.0,4.0,77,0.00,CLR,BKN,0.00,0.0,WeatherDisplay:10.37,2013-10-03 15:45:00,
2013-10-03 10:50:00,88.3,78.6,30.21,ESE,112,4.6,4.6,73,0.00,FEW,BKN,0.00,0.0,WeatherDisplay:10.37,2013-10-03 15:50:00,
2013-10-03 10:55:00,89.8,80.0,30.21,SE,135,3.6,3.6,73,0.00,SCT,BKN,0.00,0.0,WeatherDisplay:10.37,2013-10-03 15:55:00,
2013-10-03 11:00:00,89.8,78.7,30.18,SE,135,5.8,5.8,70,0.00,SCT,BKN,0.00,0.0,WeatherDisplay:10.37,2013-10-03 16:00:00,
2013-10-03 11:05:00,89.2,78.2,30.18,East,90,4.6,4.6,70,0.00,SCT,BKN,0.00,0.0,WeatherDisplay:10.37,2013-10-03 16:05:00,
2013-10-03 11:10:00,87.8,76.8,30.18,ENE,68,5.8,5.8,70,0.00,SCT,BKN,0.00,0.0,WeatherDisplay:10.37,2013-10-03 16:10:00,
2013-10-03 11:34:00,89.1,78.0,30.21,ESE,112,3.1,3.1,70,0.00,SCT,BKN,0.00,0.0,WeatherDisplay:10.37,2013-10-03 16:34:00,
2013-10-03 11:39:00,90.3,79.6,30.21,ESE,112,3.5,3.5,71,0.00,SCT,BKN,0.00,0.0,WeatherDisplay:10.37,2013-10-03 16:39:00,
2013-10-03 11:44:00,88.7,76.3,30.21,SSE,158,4.6,4.6,67,0.00,CLR,BKN,0.00,0.0,WeatherDisplay:10.37,2013-10-03 16:44:00,
2013-10-03 11:49:00,88.7,76.3,30.21,SSE,158,4.6,4.6,67,0.00,CLR,BKN,0.00,0.0,WeatherDisplay:10.37,2013-10-03 16:49:00,